Regional Weather Roundup
Issued by NWS

Home | Current Version | Previous Version | Graphics & Text | Print | Product List | Glossary On
Versions: 1 2 3 4 5 6 7 8 9 10 11 12 13 14 15 16 17 18 19 20 21 22 23 24 25 26 27 28 29 30 31 32 33 34 35 36 37 38 39 40 41 42 43 44 45 46 47 48 49 50
000
ASUS43 KMKX 031800
RWRWI

WISCONSIN REGIONAL WEATHER ROUNDUP
NATIONAL WEATHER SERVICE MILWAUKEE/SULLIVAN WI
100 PM CDT TUE MAY 03 2016

NOTE: "FAIR" INDICATES FEW OR NO CLOUDS BELOW 12,000 FEET WITH NO
SIGNIFICANT WEATHER AND/OR OBSTRUCTIONS TO VISIBILITY.

WIZ001-002-006>008-014>016-023>028-031900-
NORTHWEST WISCONSIN

CITY           SKY/WX    TMP DP  RH WIND       PRES   REMARKS
SUPERIOR ARPT  CLOUDY    67  38  33 W17G25    29.69F
ASHLAND        CLOUDY    59  41  51 W12G23    29.68F
6HR MIN TEMP:  51; 6HR MAX TEMP:  62;

HAYWARD        LGT RAIN  62  32  32 W12G21    29.74F
6HR MIN TEMP:  42; 6HR MAX TEMP:  65; 6HR PCP: TRACE;

SIREN          CLOUDY    67  33  27 W17G30    29.76F
CUMBERLAND     CLOUDY    63  32  31 W22G28    29.78F
RICE LAKE      CLOUDY    66  34  30 W15G25    29.80F
CHETEK         CLOUDY    66  39  37 W10G22    29.79F
LADYSMITH      CLOUDY    66  36  32 W18G25    29.78F
EAU CLAIRE     NOT AVBL
MENOMONIE      PTSUNNY   68  37  31 W15G23    29.82F
NEW RICHMOND   MOSUNNY   67  36  31 W20       29.82F
OSCEOLA        MOSUNNY   68  36  30 W20G32    29.83F
$$

WIZ003>005-009-010-017-018-031900-
NORTH CENTRAL WISCONSIN

CITY           SKY/WX    TMP DP  RH WIND       PRES   REMARKS
MANITOWISH WTR LGT RAIN  58  36  43 W15G33    29.73F
ARBOR VITAE    PTSUNNY   60  34  38 NW8G17    29.74F
WOODRUFF       PTSUNNY   60  34  38 NW8G17    29.74F
RHINELANDER    LGT RAIN  62  33  33 W21G28    29.73F
6HR MIN TEMP:  42; 6HR MAX TEMP:  64; 6HR PCP: TRACE;

EAGLE RIVER    CLOUDY    61  32  33 W18G28    29.73F
LAND O LAKES   CLOUDY    59  35  40 NW6       29.73F
PHILLIPS       PTSUNNY   63  35  34 W12       29.73F
6HR MIN TEMP:  35; 6HR MAX TEMP:  63;

TOMAHAWK       CLOUDY    63  34  33 W15G22    29.75F
MEDFORD        CLOUDY    64  38  38 W14G21    29.77F
MERRILL        CLOUDY   N/A N/A N/A W14G25    29.76F
$$

WIZ029-030-035-036-043>047-031900-
CENTRAL WISCONSIN

CITY           SKY/WX    TMP DP  RH WIND       PRES   REMARKS
WAUSAU         CLOUDY    70  33  25 W20G30    29.75F
6HR MIN TEMP:  49; 6HR MAX TEMP:  70;

MOSINEE        PTSUNNY   64  32  29 W20G25    29.79F
MARSHFIELD     PTSUNNY   67  31  26 W18G25    29.78F
6HR MIN TEMP:  46; 6HR MAX TEMP:  69;

STEVENS POINT  MOSUNNY   64  32  30 W13       29.80F
WAUPACA        CLOUDY    69  27  21 W16G22    29.80F
WAUTOMA        PTSUNNY   67  33  28 W13G21      N/A
WISC RAPIDS    MOSUNNY   68  27  21 W10       29.80F
6HR MIN TEMP:  40; 6HR MAX TEMP:  70;

CAMP DOUGLAS   NOT AVBL
$$

WIZ011>013-019>022-031-037>040-048>050-031900-
NORTHEAST WISCONSIN

CITY           SKY/WX    TMP DP  RH WIND       PRES   REMARKS
ANTIGO         CLOUDY    63  34  34 W16G22    29.76F
SHAWANO        MOSUNNY   70  31  23 W13       29.75F
6HR MIN TEMP:  46; 6HR MAX TEMP:  71;

OCONTO         PTSUNNY   68  33  27 W20G29    29.74F
STURGEON BAY   PTSUNNY   66  34  30 W16G25    29.76F
6HR MIN TEMP:  48; 6HR MAX TEMP:  66;

GREEN BAY      MOSUNNY   70  36  28 W17G25    29.77F
6HR MIN TEMP:  46; 6HR MAX TEMP:  70;

MANITOWOC      NOT AVBL
APPLETON       PTSUNNY   66  27  22 W15G24    29.78F
CLINTONVILLE   CLOUDY    68  30  24 W9        29.78F
OSHKOSH        PTSUNNY   67  34  29 W9        29.80F
6HR MIN TEMP:  49; 6HR MAX TEMP:  67;

$$

WIZ032>034-041-042-053>061-031900-
SOUTHWEST WISCONSIN

CITY           SKY/WX    TMP DP  RH WIND       PRES   REMARKS
LA CROSSE      CLOUDY    68  36  30 W14       29.84F
6HR MIN TEMP:  48; 6HR MAX TEMP:  70;

SPARTA         MOSUNNY   67  33  29 W10G20    29.85F
VIROQUA        CLOUDY    63  36  36 W13G23    29.88F
BOSCOBEL       LGT RAIN  69  35  28 VRB7G20   29.88F
6HR MIN TEMP:  42; 6HR MAX TEMP:  70; 6HR PCP: TRACE;

PRAIRIE DU CHI MOSUNNY   66  33  29 W12       29.89F
PLATTEVILLE    MOSUNNY   65  38  36 W18G24    29.92F
$$

WIZ056-057-062-063-064-067-068-031900-
SOUTH CENTRAL WISCONSIN

CITY           SKY/WX    TMP DP  RH WIND       PRES   REMARKS
REEDSBURG      PTSUNNY   63  36  36 W13       29.86F
BARABOO/DELLS  MOSUNNY   66  31  26 W12G21    29.85F
LONE ROCK      NOT AVBL
MINERAL POINT  MOSUNNY   68  34  28 W14G20    29.90F
MADISON        PTSUNNY   67  36  31 W8G20     29.85F
6HR MIN TEMP:  41; 6HR MAX TEMP:  67;

MIDDLETON      MOSUNNY   67  35  31 W18       29.87F
WATERTOWN      MOSUNNY   66  36  32 W13G21    29.86F
MONROE         MOSUNNY   63  34  34 W15G23    29.90F
JANESVILLE     PTSUNNY   66  34  30 W12G18    29.88F
$$

WIZ051-052-058>065-066-070>072-031900-
SOUTHEAST WISCONSIN

CITY           SKY/WX    TMP DP  RH WIND       PRES   REMARKS
MILWAUKEE      PTSUNNY   64  32  30 W13G22    29.85F
6HR MIN TEMP:  49; 6HR MAX TEMP:  67;

WAUKESHA       PTSUNNY   61  36  39 NW12      29.86F
MILWAUKEE/TIMM PTSUNNY   63  30  29 W13       29.86F
RACINE         CLOUDY    64  34  32 W10       29.88F
6HR MIN TEMP:  49; 6HR MAX TEMP:  66;

BURLINGTON     MOSUNNY   66  36  32 W14       29.88F
KENOSHA        CLOUDY    64  38  38 W14       29.87F
6HR MIN TEMP:  44; 6HR MAX TEMP:  66;

FOND DU LAC    PTSUNNY   68  34  28 W17       29.81F
6HR MIN TEMP:  46; 6HR MAX TEMP:  69;

SHEBOYGAN      SUNNY     68  34  28 W12G22    29.80F
6HR MIN TEMP:  46; 6HR MAX TEMP:  68;

WEST BEND      PTSUNNY   64  30  27 W12G20    29.84F
JUNEAU         PTSUNNY   62  33  33 W12G21    29.86F
$$

LSZ147-162-031900-
LAKE SUPERIOR

STATION/POSITION TIME  TEMP    WIND        PRES    WAVE
                       AIR SEA DIR/SP/G            HT/PER
                 (UTC) (F)     (DEG/KT/KT) (MB)    (FT/S)
W MID LAKE BUOY  1650   42 37  260/ 14/ 17 1005.3F   3/ 5
DEVILS ISLAND    1700   48     260/ 17/ 18 1005.9F
SAXON HARBOR     1700   56     220/ 12/ 23 1005.8
$$

LMZ867-665-643>646-031900-
LAKE MICHIGAN

STATION/POSITION TIME  TEMP    WIND        PRES    WAVE
                       AIR SEA DIR/SP/G            HT/PER
                 (UTC) (F)     (DEG/KT/KT) (MB)    (FT/S)
CHAMBERS ISLAND  1700   60     170/  7/ 13 1007.5F
N MID LAKE BUOY  1650   41 39  190/ 12/ 14 1008.0F   2/ 3
NORTHPORT PIER   1700   61     190/  6/ 12 1007.1F
ALGOMA LAKESHORE 1715          290/ 16/ 21   N/A
KEWAUNEE LAKESHO 1700   66     270/ 11/ 16 1008.2F
SHEBOYGAN LAKESH 1700   65     270/ 14/ 17 1010.4F
PORT WASHINGTON  1740   66     280/ 10/ 13 1010.8F
S MID LAKE BUOY  1650   44 42  190/ 10/ 10 1012.7F   0
KENOSHA   LAKESH 1700   59     170/  6/ 10 1011.9F
$$

TC  - TEMPERATURE IN CELSIUS
VSB - VISIBILITY IN STATUTE MILES
WCI - WIND CHILL INDEX
HX  - HEAT INDEX





USA.gov is the U.S. government's official web portal to all federal, state and local government web resources and services.